GW0232 Weather Reports


time (UTC)temp
C
wind
direction
speed
KPH
gust
KPH
rain 1hr
cm
rain 24hr
cm
rain mn
cm
humidity
%
barometer
mb
20260906203033 31 227 8.0 14.5 0.00 0.00 0.00 48 1011.3
20260906201538 31 281 4.8 16.1 0.00 0.00 0.00 50 1011.8
20260906200036 31 295 9.7 20.9 0.00 0.00 0.00 49 1011.9
20260906194538 31 226 11.3 25.7 0.00 0.00 0.00 49 1012.3
20260906193036 31 198 8.0 14.5 0.00 0.00 0.00 48 1012.8
20260906191540 30 233 8.0 14.5 0.00 0.00 0.00 52 1013.0
20260906184535 28 217 6.4 12.9 0.00 0.00 0.00 59 1013.4
20260906183045 27 172 4.8 11.3 0.00 0.00 0.00 66 1013.5
20260906181537 25 259 3.2 8.0 0.00 0.00 0.00 75 1013.9
20260906180036 23 176 3.2 6.4 0.00 0.00 0.00 79 1014.3
20260906174541 22 168 1.6 6.4 0.00 0.00 0.00 86 1014.5
20260906173036 22 274 0.0 4.8 0.00 0.00 0.00 87 1014.7
20260906171534 21 203 1.6 8.0 0.00 0.00 0.00 87 1015.3
20260906170034 21 88 3.2 9.7 0.00 0.00 0.00 89 1015.8
20260906164537 20 243 1.6 8.0 0.00 0.00 0.00 88 1016.4
20260906163035 21 135 6.4 19.3 0.00 0.00 0.00 87 1016.4
20260906161537 21 83 9.7 19.3 0.00 0.00 0.00 85 1017.7
20260906160032 21 115 11.3 22.5 0.00 0.00 0.00 83 1017.0
20260906154541 22 200 11.3 27.4 0.00 0.00 0.00 81 1015.9
20260906153035 21 161 8.0 25.7 0.00 0.00 0.00 84 1015.4
20260906151534 22 168 14.5 25.7 0.00 0.00 0.00 79 1015.3
20260906150041 23 236 12.9 25.7 0.00 0.00 0.00 75 1015.6
20260906144537 25 181 9.7 17.7 0.00 0.00 0.00 80 1015.2
20260906143035 24 163 1.6 4.8 0.00 0.00 0.00 81 1014.5
20260906141534 24 292 1.6 6.4 0.00 0.00 0.00 86 1013.9
20260906140032 23 259 0.0 3.2 0.00 0.00 0.00 88 1013.0
20260906134543 24 0 1.6 3.2 0.00 0.00 0.00 88 1013.1
20260906133058 24 0 0.0 1.6 0.00 0.00 0.00 88 1012.9
20260906131535 24 0 0.0 3.2 0.00 0.00 0.00 88 1013.2
20260906130037 24 0 0.0 1.6 0.00 0.00 0.00 89 1013.0
20260906124533 23 0 0.0 1.6 0.00 0.00 0.00 89 1012.6
20260906123035 23 0 0.0 1.6 0.00 0.00 0.00 89 1012.2
20260906121536 23 167 0.0 1.6 0.00 0.00 0.00 88 1012.0
20260906120033 24 210 0.0 1.6 0.00 0.00 0.00 87 1011.8
20260906114536 24 0 0.0 1.6 0.00 0.00 0.00 86 1011.9
20260906113034 24 0 0.0 0.0 0.00 0.00 0.00 85 1012.0
20260906111539 25 259 0.0 1.6 0.00 0.00 0.00 86 1012.1
20260906110034 25 0 0.0 1.6 0.00 0.00 0.00 84 1012.1
20260906104539 25 0 0.0 0.0 0.00 0.00 0.00 83 1012.2
20260906103037 25 0 0.0 1.6 0.00 0.00 0.00 83 1012.2
20260906101535 26 0 0.0 1.6 0.00 0.00 0.00 81 1012.2
20260906100038 26 262 0.0 4.8 0.00 0.00 0.00 79 1012.2
20260906094536 26 281 3.2 8.0 0.00 0.00 0.00 79 1012.3
20260906093034 26 159 1.6 6.4 0.00 0.00 0.00 78 1012.2
20260906091536 26 210 1.6 4.8 0.00 0.00 0.00 79 1012.0
20260906090039 26 259 1.6 6.4 0.00 0.00 0.00 78 1012.0
20260906084536 26 179 4.8 8.0 0.00 0.00 0.00 78 1012.0
20260906083037 26 181 1.6 6.4 0.00 0.00 0.00 76 1012.3
20260906081532 26 135 1.6 6.4 0.00 0.00 0.00 75 1012.3
20260906080039 26 133 3.2 6.4 0.00 0.00 0.00 75 1012.3
20260906074559 26 163 1.6 9.7 0.00 0.00 0.00 75 1012.0
20260906063034 26 110 1.6 6.4 0.00 0.00 0.00 74 1011.7
20260906061535 26 0 1.6 4.8 0.00 0.00 0.00 74 1011.6
20260906053042 27 232 3.2 9.7 0.00 0.00 0.00 72 1011.7
20260906051534 27 226 3.2 8.0 0.00 0.00 0.00 71 1011.7
20260906043035 28 118 3.2 8.0 0.00 0.00 0.00 71 1012.1
20260906041535 28 333 1.6 6.4 0.00 0.00 0.00 70 1012.4
20260906040039 28 210 3.2 8.0 0.00 0.00 0.00 69 1012.4
20260906034542 28 185 4.8 12.9 0.00 0.00 0.00 68 1012.6
20260906033035 28 170 3.2 11.3 0.00 0.00 0.00 69 1012.5
20260906031536 28 165 3.2 8.0 0.00 0.00 0.00 70 1012.4
20260906030033 28 143 4.8 17.7 0.00 0.00 0.00 71 1012.6
20260906024538 28 120 9.7 25.7 0.00 0.00 0.00 70 1012.4
20260906023034 28 114 12.9 29.0 0.00 0.00 0.00 70 1012.0
20260906021533 28 92 9.7 30.6 0.00 0.00 0.00 70 1011.6
20260906020043 28 63 11.3 29.0 0.00 0.00 0.00 69 1011.6
20260906014545 28 128 11.3 24.1 0.00 0.00 0.00 69 1011.4
20260906013035 28 89 17.7 32.2 0.00 0.00 0.00 68 1011.4
20260906011535 29 74 16.1 35.4 0.00 0.00 0.00 65 1011.5
20260906010036 29 96 12.9 32.2 0.00 0.00 0.00 62 1011.5
20260906004533 30 101 9.7 24.1 0.00 0.00 0.00 60 1011.4
20260906001535 31 103 12.9 24.1 0.00 0.00 0.00 54 1011.5
20260906000037 32 85 6.4 14.5 0.00 0.00 0.00 49 1011.2
20260905234533 32 80 3.2 16.1 0.00 0.00 0.00 50 1010.7
20260905233039 32 0 0.0 0.0 0.00 0.00 0.00 50 1010.8
20260905231541 33 0 0.0 0.0 0.00 0.00 0.00 50 1010.8
20260905230041 33 349 0.0 3.2 0.00 0.00 0.00 49 1010.9
20260905224535 33 0 0.0 8.0 0.00 0.00 0.00 47 1010.8
20260905223035 35 70 1.6 9.7 0.00 0.00 0.00 44 1010.7
20260905221536 36 278 3.2 11.3 0.00 0.00 0.00 40 1010.1
20260905220033 36 291 4.8 12.9 0.00 0.00 0.00 38 1009.8
20260905213034 37 288 3.2 9.7 0.00 0.00 0.00 36 1009.3
20260905211538 38 281 8.0 14.5 0.00 0.00 0.00 33 1009.3
20260905204537 38 239 6.4 14.5 0.00 0.00 0.00 34 1009.5